N468JL KOEB-KRAC

Flight info

Callsign N468JL
Flight time N/A
Altitude 3500
Route DCT
Aircraft C182/L-DOV/C

Departure

Time N/A
Airport Branch County Memorial Airport (KOEB)

Arrival

Time 2026-05-04 00:08
Airport John H Batten Airport (KRAC)
Time Latitude Longitude Altitude Speed Heading
2026-05-03 23:57 42.66837 -87.41839 3523 ft 114 kts 281°
2026-05-03 23:57 42.67136 -87.42824 3520 ft 114 kts 281°
2026-05-03 23:57 42.67438 -87.43824 3520 ft 114 kts 281°
2026-05-03 23:57 42.67738 -87.44823 3521 ft 114 kts 281°
2026-05-03 23:58 42.68037 -87.45822 3521 ft 114 kts 281°
2026-05-03 23:58 42.68335 -87.46823 3521 ft 114 kts 281°
2026-05-03 23:58 42.68631 -87.47823 3521 ft 114 kts 280°
2026-05-03 23:58 42.68926 -87.48825 3521 ft 114 kts 280°
2026-05-03 23:59 42.69218 -87.49827 3521 ft 114 kts 280°
2026-05-03 23:59 42.69509 -87.50828 3521 ft 114 kts 280°
2026-05-03 23:59 42.69798 -87.51830 3521 ft 114 kts 280°
2026-05-03 23:59 42.70085 -87.52834 3520 ft 114 kts 279°
2026-05-04 00:00 42.70371 -87.53839 3520 ft 114 kts 279°
2026-05-04 00:00 42.70653 -87.54842 3520 ft 114 kts 279°
2026-05-04 00:00 42.70933 -87.55846 3520 ft 114 kts 279°
2026-05-04 00:00 42.71212 -87.56853 3519 ft 114 kts 279°
2026-05-04 00:01 42.71487 -87.57860 3516 ft 114 kts 279°
2026-05-04 00:01 42.71757 -87.58857 3516 ft 114 kts 279°
2026-05-04 00:01 42.72026 -87.59854 3486 ft 108 kts 278°
2026-05-04 00:01 42.72307 -87.60817 3291 ft 114 kts 284°
2026-05-04 00:02 42.72771 -87.61732 3097 ft 123 kts 299°
2026-05-04 00:02 42.73359 -87.62613 2877 ft 126 kts 300°
2026-05-04 00:02 42.73940 -87.63464 2771 ft 119 kts 299°
2026-05-04 00:02 42.74504 -87.64285 2603 ft 120 kts 299°
2026-05-04 00:03 42.75077 -87.65133 2389 ft 123 kts 299°
2026-05-04 00:03 42.75611 -87.66021 2223 ft 119 kts 294°
2026-05-04 00:03 42.76099 -87.66906 2084 ft 116 kts 293°
2026-05-04 00:03 42.76558 -87.67790 1913 ft 115 kts 296°
2026-05-04 00:04 42.76967 -87.68719 1739 ft 115 kts 295°
2026-05-04 00:04 42.77334 -87.69671 1634 ft 108 kts 292°
2026-05-04 00:04 42.77638 -87.70520 1637 ft 94 kts 291°
2026-05-04 00:04 42.77892 -87.71288 1612 ft 86 kts 288°
2026-05-04 00:05 42.78086 -87.72015 1600 ft 78 kts 282°
2026-05-04 00:05 42.78230 -87.72716 1542 ft 77 kts 279°
2026-05-04 00:05 42.78348 -87.73446 1457 ft 80 kts 277°
2026-05-04 00:05 42.78436 -87.74188 1416 ft 78 kts 272°
2026-05-04 00:06 42.78476 -87.74916 1379 ft 77 kts 270°
2026-05-04 00:06 42.78502 -87.75655 1351 ft 79 kts 269°
2026-05-04 00:06 42.78482 -87.76425 1298 ft 84 kts 261°
2026-05-04 00:06 42.78372 -87.77223 1243 ft 87 kts 255°
2026-05-04 00:07 42.78204 -87.77967 1218 ft 78 kts 252°
2026-05-04 00:07 42.78034 -87.78632 1135 ft 70 kts 251°
2026-05-04 00:07 42.77854 -87.79235 1025 ft 68 kts 244°
2026-05-04 00:07 42.77577 -87.79756 922 ft 67 kts 232°
2026-05-04 00:08 42.77234 -87.80184 812 ft 65 kts 226°
2026-05-04 00:08 42.76888 -87.80553 719 ft 63 kts 221°
2026-05-04 00:08 42.76533 -87.80916 681 ft 61 kts 221°
2026-05-04 00:08 42.76224 -87.81232 678 ft 49 kts 219°
2026-05-04 00:09 42.76016 -87.81446 678 ft 23 kts 217°
2026-05-04 00:09 42.75967 -87.81541 678 ft 7 kts 308°
2026-05-04 00:09 42.76033 -87.81636 678 ft 17 kts 314°
2026-05-04 00:09 42.76050 -87.81723 678 ft 8 kts 229°
2026-05-04 00:10 42.75989 -87.81807 678 ft 15 kts 221°
2026-05-04 00:10 42.75895 -87.81907 678 ft 14 kts 227°
2026-05-04 00:10 42.75897 -87.81952 678 ft 2 kts 321°
2026-05-04 00:10 42.75932 -87.81969 678 ft 2 kts 350°
2026-05-04 00:11 42.75933 -87.81970 678 ft 0 kts 353°